Jackson, TN

3:37 AM CST on November 12, 2019 (GMT -0600)
McKellar-Sipes Regional

Weather History for KMKL - July, 2019

Change the Weather History Date:

Thursday, July 18, 2019

  Actual Average Record
Temperature  
Mean Temperature 82 °F 80 °F  
Max Temperature 89 °F 91 °F 102 °F (1954)
Min Temperature 74 °F 69 °F 56 °F (1976)
Degree Days  
Heating Degree Days 0 0  
Month to date heating degree days 0 0  
Since 1 June heating degree days 1 2  
Since 1 July heating degree days 0 0  
Cooling Degree Days 17 15  
Month to date cooling degree days 289 263  
Year to date cooling degree days 870 817  
Since 1 June cooling degree days 610 602  
Growing Degree Days 30 (Base 50)    
Moisture  
Dew Point 77 °F    
Average Humidity 86    
Maximum Humidity 100    
Minimum Humidity 72    
Precipitation  
Precipitation 0.00 in 0.14 in 2.32 in (2012)
Month to date precipitation 9.26 2.66  
Year to date precipitation 42.08 31.04  
Sea Level Pressure  
Sea Level Pressure 30.01 in    
Wind  
Wind Speed 6 mph (SSW)    
Max Wind Speed 13 mph    
Max Gust Speed 16 mph    
Visibility 10 miles    
Events Rain , Thunderstorm    
T = Trace of Precipitation, MM = Missing Value Source: NWS Daily Summary

Daily Weather History Graph

Daily Weather History Graph

Search for Another Location

Airport or City:

Astronomy

Jul. 18, 2019 Rise Set
Actual Time 5:53 AM CDT 8:10 PM CDT
Civil Twilight 5:24 AM CDT 8:39 PM CDT
Nautical Twilight 4:48 AM CDT 9:14 PM CDT
Astronomical Twilight 4:09 AM CDT 9:53 PM CDT
Moon 9:38 PM CDT (7/18) 7:21 AM CDT (7/18)
Length of Visible Light 15h 14m
Length of Day
14h 16m
Full, 97% of the Moon is Illuminated
Jul 18
Full
Jul 24
Last Quarter
Jul 31
New
Aug 7
First Quarter
Aug 15
Full

Hourly Weather History & Observations

Time (CDT) Temp. Heat Index Dew Point Humidity Pressure Visibility Wind Dir Wind Speed Gust Speed Precip Events Conditions
12:20 AM 75.0 °F - 73.9 °F 96% 30.09 in 6.0 mi Calm Calm - N/A Rain , Thunderstorm Rain
12:53 AM 73.9 °F - 73.9 °F 100% 30.07 in 10.0 mi Calm Calm - N/A Thunderstorm Scattered Clouds
1:04 AM 73.9 °F - 73.9 °F 100% 30.08 in 10.0 mi South 4.6 mph - N/A   Partly Cloudy
1:53 AM 73.9 °F - 73.9 °F 100% 30.04 in 10.0 mi SSW 5.8 mph - N/A   Partly Cloudy
2:53 AM 73.9 °F - 73.0 °F 97% 29.99 in 10.0 mi SSW 6.9 mph - N/A   Clear
3:53 AM 73.9 °F - 73.9 °F 100% 29.98 in 10.0 mi South 5.8 mph - N/A   Clear
4:53 AM 75.0 °F - 73.9 °F 96% 29.99 in 10.0 mi SSW 3.5 mph - N/A   Clear
5:53 AM 75.0 °F - 73.9 °F 96% 30.00 in 8.0 mi SW 3.5 mph - N/A   Clear
6:53 AM 75.9 °F - 75.0 °F 97% 30.01 in 7.0 mi SSW 6.9 mph - N/A   Clear
7:53 AM 78.1 °F - 77.0 °F 96% 30.03 in 10.0 mi SW 6.9 mph - N/A   Clear
8:53 AM 81.0 °F 88.6 °F 78.1 °F 91% 30.04 in 10.0 mi SW 6.9 mph - N/A   Clear
9:53 AM 82.0 °F 91.0 °F 78.1 °F 88% 30.04 in 10.0 mi WSW 6.9 mph - N/A   Mostly Cloudy
10:53 AM 84.9 °F 96.6 °F 78.1 °F 80% 30.04 in 10.0 mi WSW 8.1 mph - N/A   Clear
11:53 AM 87.1 °F 99.8 °F 78.1 °F 74% 30.04 in 10.0 mi SW 10.4 mph - N/A   Clear
12:53 PM 88.0 °F 103.1 °F 79.0 °F 75% 30.02 in 10.0 mi SW 9.2 mph - N/A   Clear
1:53 PM 88.0 °F 103.1 °F 79.0 °F 75% 30.01 in 10.0 mi SW 5.8 mph - N/A   Clear
2:53 PM 87.1 °F 98.8 °F 77.0 °F 72% 29.99 in 10.0 mi WSW 9.2 mph - N/A   Clear
3:53 PM 87.1 °F 103.2 °F 80.1 °F 80% 29.98 in 10.0 mi SSE 3.5 mph - N/A   Clear
4:53 PM 87.1 °F 103.2 °F 80.1 °F 80% 29.97 in 10.0 mi Calm Calm - N/A   Mostly Cloudy
5:53 PM 86.0 °F 102.5 °F 81.0 °F 85% 29.96 in 10.0 mi ESE 3.5 mph - N/A   Clear
6:53 PM 86.0 °F 102.5 °F 81.0 °F 85% 29.96 in 10.0 mi SSE 3.5 mph - N/A   Clear
7:53 PM 84.9 °F 100.3 °F 81.0 °F 88% 29.96 in 10.0 mi South 3.5 mph - N/A   Clear
8:53 PM 82.9 °F 93.8 °F 79.0 °F 88% 29.96 in 10.0 mi South 4.6 mph - N/A   Clear
9:53 PM 82.0 °F 91.0 °F 78.1 °F 88% 29.99 in 10.0 mi South 5.8 mph - N/A   Clear
10:53 PM 82.0 °F 90.2 °F 77.0 °F 85% 29.98 in 10.0 mi South 5.8 mph - N/A   Clear
11:53 PM 81.0 °F 87.9 °F 77.0 °F 88% 29.98 in 10.0 mi South 3.5 mph - N/A   Clear